Weather in Corralejo

Spain     28°44′21″N   13°52′02″W
temp.,
°C
wind,
m/s
gust,
m/s
humid.,
%
clouds,
%
prec.,
mm/h
press.,
hPa
HPBL,
m
6 march, sat
sat600:00+18nnw910726 0.3 10181171
03:00+17nnw910710 0.0 10181239
06:00+17nw810731 0.1 10171126
09:00+18nnw911740 0.1 10191139
12:00+18nnw910720 0.3 10201213
15:00+18nnw910710 0.0 10191152
18:00+18nnw1011740 0.1 10191141
21:00+18n1011730 0.1 10211173
7 march, sun
sun700:00+18n910730 0.3 10221087
03:00+17n1112780 0.0 1021990
06:00+17n1112730 0.1 10211109
09:00+18n911693 0.0 10221321
12:00+18n910716 0.0 10231258
15:00+17nnw89714 0.0 10211088
18:00+17nnw910744 0.1 10201127
21:00+17n9107211 0.1 10221187
8 march, mon
mon800:00+17n997052 0.1 10221242
03:00+17n897099 0.1 10201270
06:00+16n8970100 0.2 10191228
09:00+17n8970100 0.1 10211251
12:00+17n8968100 0.2 10221345
15:00+17n896788 0.1 10191236
18:00+17nne9106963 0.1 10191270
21:00+16nne10106935 0.1 10201243
9 march, tue
tue900:00+16nne10117038 0.1 10201257
03:00+16nne9117224 0.0 10191206
06:00+16nne11126952 0.1 10191299
09:00+16nne101267100 0.1 10201396
12:00+17nne10116696 0.1 10211326
15:00+17nne10126819 0.0 10191284
18:00+16nne11127121 0.0 10191121
21:00+16nne1012723 0.0 10211034
10 march, wed
wed1000:00+16nne1012747 0.0 10211105
03:00+16nne10127625 0.0 10201003
06:00+16nne10127533 0.0 1020952
09:00+17nne1012731 0.0 1021945
12:00+17ne910701 0.0 1022938
15:00+18ne810700 0.0 1021890
18:00+18ne810700 0.0 1020818
21:00+17ne69720 0.0 1022696